Theta_e
349 348 349 349 349 351 350 349 347 347 346 346 346 346 346 345 346 345 341 341 338 337 342 344 345 347 345 345 346 346 345 346 346 346 345 345 344 345 344 344 343 343 346
344 344 344 343 343 343 342 342 342 344 344 346 347 347 346 345 345 345 346 345 341 339 337 340 338 344 346 345 346 345 345 346 345 345 345 344 344 343 343 343 341 342 343
338 336 335 333 332 332 332 331 330 329 329 329 330 334 339 344 346 344 344 344 344 344 341 341 338 340 339 337 335 338 341 345 345 344 341 342 343 344 344 342 342 342 342
331 332 332 331 329 329 329 326 324 323 322 322 323 324 326 328 331 335 339 341 342 343 342 339 341 340 338 337 333 329 326 332 344 343 343 342 342 343 343 343 341 342 340
332 330 327 327 321 314 314 315 317 319 319 320 319 318 317 317 320 327 331 333 337 340 342 341 341 341 342 341 337 334 329 328 336 340 342 342 342 343 344 341 342 341 339
328 327 324 316 311 314 319 321 321 322 323 323 323 323 322 322 322 321 318 325 331 333 336 339 340 340 340 339 338 334 332 333 335 339 340 342 344 343 342 338 339 340 338
326 318 314 317 319 322 322 320 321 322 322 322 323 323 322 321 321 322 323 322 318 328 332 333 334 338 340 339 338 336 333 333 332 332 337 341 342 343 343 340 337 339 340
315 317 319 320 320 321 321 320 320 321 321 321 320 321 322 320 322 322 325 325 322 322 331 333 333 333 336 338 338 336 335 335 332 331 336 338 340 342 342 342 342 337 338
317 318 319 319 321 319 319 318 319 318 316 316 319 319 320 321 321 322 323 324 326 329 329 331 330 330 330 331 335 336 335 333 332 332 334 332 332 337 340 342 337 339 334
317 317 318 318 316 315 318 317 313 315 314 315 317 318 319 321 320 321 322 323 324 324 327 326 326 327 328 330 332 334 335 334 332 333 333 331 330 330 338 338 334 340 339
318 320 319 319 318 316 312 315 314 315 315 315 315 315 316 316 318 319 321 322 322 323 324 326 326 327 327 330 332 333 334 335 335 335 334 333 329 327 334 338 339 339 338
319 316 315 318 316 314 308 308 311 307 308 310 309 308 309 314 315 315 317 319 321 322 323 324 324 324 326 328 330 331 332 332 333 334 335 335 334 330 326 329 337 338 336
316 313 312 310 312 311 312 311 311 313 310 310 310 309 308 306 306 312 314 316 318 320 321 322 323 324 325 325 326 328 330 330 330 331 333 333 333 334 333 332 332 332 332
315 313 311 314 314 313 312 312 313 312 312 313 311 310 308 309 308 305 311 314 316 318 319 321 323 324 325 325 326 327 328 328 329 329 330 330 331 332 332 333 332 332 331
317 316 312 313 313 314 313 311 312 314 312 312 313 311 309 309 308 307 308 312 313 316 317 319 321 321 322 323 324 325 326 326 328 329 330 329 329 331 331 330 331 331 332
315 310 311 311 313 311 311 311 311 312 311 310 310 312 311 309 310 308 307 306 311 312 314 315 316 316 318 319 322 323 324 325 327 328 327 328 329 329 331 331 331 332 333
309 309 310 310 309 309 309 309 310 310 311 309 309 311 311 308 310 310 308 307 306 307 309 310 312 312 312 313 314 317 320 322 324 325 326 326 328 328 328 328 327 328 331
310 310 311 312 312 312 311 309 309 310 309 308 308 308 307 307 308 310 309 307 306 306 307 308 307 308 309 310 311 312 314 317 320 322 323 324 326 326 326 326 327 329 329
311 311 310 311 312 312 312 312 311 311 311 310 309 308 308 308 308 307 308 308 307 306 307 306 307 308 307 307 309 310 311 312 314 316 319 321 322 323 325 325 327 329 330
314 314 315 314 313 313 313 313 312 312 312 311 310 309 310 310 307 307 308 307 308 307 307 307 306 306 307 308 307 308 309 310 310 312 315 316 317 319 322 323 326 327 328
314 314 315 316 315 313 315 314 314 313 312 312 311 311 310 310 309 309 309 308 309 309 308 307 307 307 306 305 307 307 306 307 308 308 309 312 315 317 317 319 321 323 325
313 314 315 316 316 316 314 314 314 314 313 313 313 312 311 309 310 310 309 309 309 308 309 309 308 308 307 306 305 305 304 304 304 307 308 308 310 314 316 316 318 319 319
313 315 316 316 315 314 315 314 314 313 313 313 313 313 312 310 310 310 309 308 307 304 306 308 308 308 307 306 306 305 305 305 305 302 304 307 309 309 313 315 315 316 315
314 315 316 316 317 316 315 315 313 314 314 312 313 312 313 311 311 310 309 309 308 307 302 302 302 303 303 303 303 304 302 302 301 303 301 303 307 309 310 313 314 314 313
315 316 317 318 317 314 315 316 315 314 314 314 313 312 312 312 311 310 310 309 309 309 307 303 302 302 302 301 300 300 299 299 300 302 302 301 304 309 309 309 309 308 308
316 316 316 318 318 316 316 316 312 313 315 315 313 312 312 312 311 310 310 309 310 310 309 307 302 302 302 301 301 300 300 298 299 299 302 301 301 306 309 309 308 308 308
Wind_Speed
9 6 6 6 6 8 10 12 13 11 11 14 15 14 14 14 14 15 15 13 12 10 11 14 17 20 24 27 24 26 28 27 30 29 24 23 23 21 21 24 20 20 18
3 6 10 11 12 14 15 14 15 16 17 16 17 18 19 19 19 18 19 18 16 16 13 12 12 15 19 21 22 22 23 25 24 27 27 26 23 21 20 24 23 22 28
7 12 13 14 15 16 17 18 19 20 21 21 22 24 24 24 23 22 22 21 21 19 18 17 17 15 15 11 11 13 15 17 20 20 22 20 21 23 25 23 22 20 22
10 12 13 15 16 17 17 17 16 16 18 19 19 20 21 22 22 27 27 25 25 22 21 23 21 21 18 16 14 14 14 16 19 22 24 24 22 22 26 27 23 22 21
15 16 14 14 15 14 14 15 15 15 16 17 19 20 21 21 22 24 27 27 27 26 23 17 19 19 21 22 21 17 18 19 20 20 24 27 27 25 26 22 21 19 21
13 13 14 16 16 14 12 13 14 15 15 16 16 18 20 20 21 24 28 30 29 28 28 28 24 21 19 20 20 20 19 18 18 19 24 26 28 29 29 27 23 21 22
15 15 15 13 12 13 15 15 16 17 17 18 18 19 21 19 16 18 23 26 28 27 24 25 25 23 22 21 20 20 20 21 20 22 24 26 29 29 30 29 31 33 29
15 13 10 12 13 14 14 16 16 17 19 19 19 20 22 16 15 19 21 20 16 14 17 19 20 20 21 23 25 25 25 22 21 21 21 22 23 24 30 33 28 28 28
10 10 12 14 15 14 16 15 16 17 20 22 19 16 19 18 15 16 18 18 14 10 13 14 15 17 18 21 26 28 28 28 25 22 22 22 20 20 24 23 24 19 25
10 16 17 19 16 15 13 15 20 22 23 25 23 16 16 17 18 17 19 19 19 18 15 14 15 17 18 15 16 20 26 29 27 25 22 22 22 20 19 30 30 25 25
11 9 13 14 17 20 15 12 19 20 23 25 26 27 26 24 23 23 23 22 22 21 18 17 18 16 16 18 17 16 18 19 24 29 26 24 22 24 20 18 26 25 22
11 13 12 10 14 17 22 16 19 26 25 27 30 30 29 26 27 29 25 21 20 21 18 20 20 21 20 19 20 20 20 19 21 20 25 28 26 24 24 22 20 19 18
11 14 14 14 20 20 22 19 17 22 22 25 28 33 35 36 34 30 31 29 20 17 17 20 21 23 22 21 17 16 17 18 21 25 28 27 24 28 27 26 24 22 23
9 14 16 14 15 19 20 21 19 21 21 20 23 27 30 34 37 39 35 36 31 21 17 16 16 14 12 12 12 10 11 14 15 17 20 25 29 33 30 28 31 30 32
6 7 11 13 15 13 17 20 21 18 20 21 21 22 27 29 33 36 35 34 35 28 21 17 16 15 13 12 12 13 13 15 17 18 19 22 24 24 29 34 36 36 34
7 10 10 13 13 13 14 15 15 17 17 18 21 21 21 23 26 29 33 32 28 29 31 25 21 19 17 15 15 15 14 14 11 15 18 21 21 22 23 25 29 32 33
10 12 11 11 13 16 16 14 16 16 15 18 19 17 17 22 21 25 28 32 33 31 30 29 28 26 23 20 17 14 13 11 11 9 11 15 18 20 23 25 27 30 31
8 9 11 14 16 16 18 14 12 15 22 19 17 15 16 19 21 21 23 26 32 31 32 29 29 27 25 24 26 22 15 13 11 10 10 7 10 16 17 19 23 26 28
4 6 6 7 10 12 15 15 13 15 18 17 17 18 20 22 18 18 20 21 27 27 27 28 27 27 28 26 26 24 25 21 18 14 12 12 13 15 15 16 18 17 20
5 8 10 12 11 12 13 15 14 15 16 16 17 17 20 21 16 19 19 18 23 23 24 23 24 24 25 24 26 27 27 27 26 22 18 15 14 12 13 15 17 14 18
7 11 13 13 9 10 18 21 19 12 14 15 16 15 17 20 17 19 22 18 21 23 22 20 21 20 21 24 23 24 27 28 27 28 26 23 19 15 14 12 11 13 21
9 10 12 14 9 18 20 23 11 14 10 15 20 14 16 16 15 16 21 21 21 23 20 19 19 19 17 20 22 22 25 27 25 26 28 27 24 20 14 13 12 11 12
6 8 11 14 17 18 18 19 15 13 18 20 17 14 15 15 15 14 21 20 24 25 20 19 21 19 17 17 17 19 25 27 28 27 25 24 24 22 17 13 13 16 16
6 8 11 14 20 18 16 20 16 16 15 18 15 18 16 16 17 17 19 20 22 27 25 23 21 22 24 23 21 23 28 29 28 23 22 23 21 18 17 14 13 16 16
14 13 15 17 18 16 16 18 19 17 18 15 16 18 17 16 18 20 21 21 20 26 28 27 24 24 25 25 25 25 25 26 25 23 21 20 19 16 15 14 14 16 17
17 16 17 20 17 19 17 15 17 18 19 18 16 15 17 15 17 19 21 22 24 27 27 30 29 27 28 29 28 27 26 25 24 22 21 19 18 16 14 16 15 17 19
Wind_Direction
198 173 226 240 251 254 264 267 271 278 277 273 277 275 282 288 292 300 298 303 307 317 296 279 272 264 251 258 261 260 256 260 261 271 272 272 274 267 274 261 269 247 245
215 283 289 290 286 288 290 293 291 289 290 285 279 276 279 280 283 286 287 290 292 294 294 295 289 279 275 270 268 262 255 256 260 269 277 280 268 269 275 266 266 258 243
287 299 299 299 301 303 306 306 302 299 297 292 287 282 280 280 283 282 277 274 274 277 277 277 278 281 278 283 289 291 286 275 269 266 274 279 264 264 271 270 257 259 248
328 321 314 313 315 314 312 312 314 313 310 309 307 302 296 288 283 278 277 274 270 268 268 274 269 273 274 270 282 294 296 279 267 261 264 268 266 265 262 261 259 253 260
326 321 326 331 327 324 325 329 332 331 329 327 321 317 312 303 293 286 281 276 273 270 259 260 266 262 268 268 271 281 291 284 273 268 260 258 261 257 250 251 259 254 258
329 330 329 325 327 334 341 344 342 343 344 345 342 338 331 321 313 299 286 280 275 274 274 267 259 259 260 261 271 277 279 284 280 279 270 258 255 252 247 236 242 246 265
330 332 336 344 351 5 4 350 353 351 351 355 352 347 349 348 348 331 329 304 281 271 277 277 275 266 259 259 264 267 271 275 283 287 280 269 262 253 245 239 245 244 261
328 335 350 5 4 10 9 4 1 349 346 344 347 352 350 357 344 350 349 344 325 281 281 282 280 278 268 261 260 258 263 269 277 282 281 284 281 269 255 251 264 262 253
347 8 16 20 21 13 13 14 7 356 354 355 355 350 348 352 340 335 334 336 339 312 290 290 293 291 280 269 265 264 263 265 267 275 274 272 278 277 257 243 231 246 251
39 40 30 26 26 20 28 21 26 28 29 28 22 4 349 347 345 327 325 328 324 324 302 294 298 293 289 277 276 272 268 266 266 268 272 265 266 268 279 235 235 255 251
38 23 28 19 18 17 10 26 34 25 24 26 28 29 25 12 357 344 333 328 325 323 312 306 304 305 295 283 280 280 270 275 264 261 263 266 264 259 254 247 246 249 257
54 31 17 8 11 9 16 19 46 44 38 35 30 25 20 14 16 15 357 335 326 321 315 302 301 300 296 297 287 280 272 272 268 271 261 256 260 258 252 250 253 261 263
49 31 34 44 42 45 38 30 49 38 35 32 27 24 21 19 15 13 12 5 334 319 318 309 303 296 295 297 296 294 281 279 269 262 260 262 262 260 258 258 254 256 265
58 37 38 37 30 32 29 22 22 22 20 11 13 17 20 17 15 13 9 6 7 356 339 335 325 309 300 292 286 278 273 267 269 270 266 262 262 261 259 259 259 261 268
39 20 14 23 19 16 26 14 8 4 8 7 354 1 9 16 20 18 12 10 12 7 351 336 334 332 334 328 324 310 306 289 273 270 272 268 263 263 258 261 265 266 268
29 31 39 20 17 16 11 13 16 4 13 14 1 349 358 3 10 12 15 17 11 19 22 19 8 0 352 342 330 318 315 320 292 284 276 271 273 269 265 263 264 264 264
51 53 55 27 11 4 4 8 8 7 2 4 6 2 353 1 357 4 9 14 19 20 24 25 28 27 19 11 358 334 329 317 320 298 274 271 266 267 267 267 267 264 264
63 53 45 39 37 32 28 19 9 354 1 8 1 7 7 5 359 360 1 8 15 17 21 20 21 18 13 13 15 17 4 347 326 310 307 315 282 269 273 273 269 267 263
11 11 348 344 11 13 17 12 4 356 357 360 357 353 356 358 1 5 1 5 10 11 10 15 14 13 16 14 12 9 13 14 13 8 350 319 311 294 277 278 280 283 267
1 0 354 331 320 353 349 354 348 341 347 349 352 346 350 356 354 357 358 1 7 6 3 357 1 6 4 3 5 6 5 8 9 14 11 359 351 330 305 283 271 287 278
9 4 3 5 337 319 331 342 326 332 332 344 345 337 340 349 351 351 354 352 354 359 355 354 352 345 354 360 354 356 359 1 359 3 6 1 357 347 340 327 316 285 276
349 351 352 357 358 356 2 343 324 328 337 335 335 320 333 344 342 339 344 348 346 345 343 348 344 345 337 343 346 347 347 350 351 355 355 358 356 351 342 335 338 345 336
345 344 341 334 346 356 344 348 337 303 304 313 319 314 323 338 328 323 344 348 353 354 340 329 331 334 334 333 328 329 336 338 339 338 339 346 348 348 343 341 339 337 332
347 330 327 327 323 324 334 337 341 327 307 327 314 312 305 320 317 316 328 338 344 355 354 348 341 332 327 326 327 321 323 323 325 326 327 329 337 338 342 328 329 328 330
335 318 313 317 320 321 316 319 325 319 315 309 323 319 300 306 312 310 317 325 331 339 349 350 345 342 341 339 335 329 325 321 319 319 319 317 323 329 335 338 345 346 344
319 321 321 314 306 319 323 314 324 319 328 314 317 313 327 311 319 301 307 315 326 332 336 337 338 335 335 334 331 327 325 323 317 313 309 312 309 314 313 320 335 342 347